Date String (YYYY-MM-DD hh:mm:ss) UTC,Instrument flags,Ambient pressure (hPa),Sample flow (lpm),Bypass flow (lpm),Sample temperature (°C),Ambient temperature (°C),ASC tube jacket temperature (°C),LED temperature (°C),Box temperature (°C),Sample RH (%),Span deviation,Mass concentration (μg/m³),Mass concentration (μg/m³),Mass concentration (μg/m³)
DateTimeUTC,F1_M11,P_M11,Q1_M11,Q2_M11,T1_M11,T2_M11,T3_M11,T4_M11,T5_M11,U1_M11,ZSPAN_M11,X0_M11,X2_M11,X1_M11
2022-05-24 13:00:00,,0825.6,5.00,0.00,27.8,26.7,00.0,36.8,29.7,20.5,-001.7,0010.65,0007.72,0007.34
2022-05-24 13:01:00,,0825.6,5.00,0.00,27.8,26.7,00.0,36.8,29.7,20.5,-001.6,0010.70,0007.79,0007.43
2022-05-24 13:02:00,,0825.6,5.00,0.00,27.8,26.7,00.0,36.8,29.7,20.6,-001.6,0010.76,0007.86,0007.50
2022-05-24 13:03:00,,0825.6,5.00,0.00,27.8,26.7,00.0,36.8,29.7,20.7,-001.6,0010.76,0007.90,0007.56
2022-05-24 13:04:00,,0825.6,5.00,0.00,27.8,26.7,00.0,36.8,29.6,22.3,-001.4,0010.91,0008.01,0007.64
2022-05-24 13:05:00,,0825.6,5.00,0.00,27.8,26.7,00.0,36.8,29.7,23.0,-001.2,0010.96,0008.09,0007.71
2022-05-24 13:06:00,,0825.7,4.99,0.00,27.8,26.7,00.0,36.8,29.6,21.5,-001.0,0010.61,0008.10,0007.77
2022-05-24 13:07:00,,0825.6,5.00,0.00,27.8,26.7,00.0,36.8,29.7,21.1,-000.8,0010.63,0008.17,0007.84
2022-05-24 13:08:00,,0825.7,5.00,0.00,27.8,26.7,00.0,36.7,29.6,20.9,-000.9,0010.67,0008.26,0007.93
2022-05-24 13:09:00,,0825.7,5.00,0.00,27.8,26.7,00.0,36.7,29.6,20.8,-000.9,0010.77,0008.32,0008.00
2022-05-24 13:10:00,,0825.7,4.99,0.00,27.8,26.7,00.0,36.7,29.6,20.9,-001.5,0010.81,0008.36,0008.05
2022-05-24 13:11:00,,0825.6,5.00,0.00,27.8,26.7,00.0,36.7,29.6,20.9,-001.7,0010.95,0008.43,0008.10
2022-05-24 13:12:00,,0825.6,5.00,0.00,27.8,26.6,00.0,36.7,29.6,20.9,-002.0,0011.08,0008.48,0008.11
2022-05-24 13:13:00,,0825.6,5.01,0.00,27.8,26.6,00.0,36.7,29.6,21.0,-002.0,0011.02,0008.45,0008.09
2022-05-24 13:14:00,,0825.6,5.00,0.00,27.8,26.6,00.0,36.7,29.6,20.9,-001.5,0010.98,0008.45,0008.06
2022-05-24 13:15:00,,0825.6,4.99,0.00,27.8,26.6,00.0,36.7,29.6,20.8,-001.3,0010.99,0008.46,0008.08
2022-05-24 13:16:00,,0825.6,5.00,0.00,27.7,26.6,00.0,36.7,29.5,20.9,-001.3,0011.00,0008.48,0008.10
2022-05-24 13:17:00,,0825.6,5.01,0.00,27.7,26.5,00.0,36.7,29.5,20.8,-001.4,0011.19,0008.54,0008.14
2022-05-24 13:18:00,,0825.6,5.00,0.00,27.6,26.4,00.0,36.7,29.4,20.8,-001.6,0011.27,0008.59,0008.18
2022-05-24 13:19:00,,0825.6,5.00,0.00,27.6,26.3,00.0,36.7,29.4,20.8,-001.6,0011.31,0008.64,0008.22
2022-05-24 13:20:00,,0825.6,5.01,0.00,27.6,26.3,00.0,36.7,29.4,20.8,-001.7,0011.24,0008.66,0008.26
2022-05-24 13:21:00,,0825.6,5.00,0.00,27.5,26.2,00.0,36.7,29.3,20.9,-001.4,0011.30,0008.72,0008.31
2022-05-24 13:22:00,,0825.6,5.00,0.00,27.5,26.2,00.0,36.6,29.3,21.0,-001.4,0011.97,0008.77,0008.36
2022-05-24 13:23:00,,0825.6,5.00,0.00,27.5,26.2,00.0,36.6,29.3,21.0,-001.0,0011.80,0008.76,0008.41
2022-05-24 13:24:00,,0825.6,5.01,0.00,27.5,26.2,00.0,36.6,29.3,21.0,-000.8,0011.82,0008.80,0008.45
2022-05-24 13:25:00,,0825.6,5.00,0.00,27.5,26.2,00.0,36.6,29.3,20.9,-001.0,0011.98,0008.91,0008.57
2022-05-24 13:26:00,,0825.7,4.99,0.00,27.4,26.1,00.0,36.5,29.2,20.9,-001.7,0012.26,0008.97,0008.63
2022-05-24 13:27:00,,0825.6,5.00,0.00,27.4,26.1,00.0,36.5,29.2,20.9,-002.1,0012.71,0009.04,0008.68
2022-05-24 13:28:00,,0825.6,5.00,0.00,27.4,26.1,00.0,36.5,29.2,21.0,-002.4,0013.07,0009.08,0008.71
2022-05-24 13:29:00,,0825.6,5.00,0.00,27.4,26.1,00.0,36.5,29.2,21.0,-002.3,0013.03,0009.08,0008.72
2022-05-24 13:30:00,,0825.7,5.00,0.00,27.4,26.1,00.0,36.5,29.2,21.0,-002.2,0013.13,0009.12,0008.73
2022-05-24 13:31:00,,0825.6,5.00,0.00,27.4,26.1,00.0,36.5,29.2,21.1,-002.1,0013.25,0009.17,0008.76
2022-05-24 13:32:00,,0825.6,4.99,0.00,27.4,26.1,00.0,36.4,29.2,21.2,-002.2,0013.27,0009.19,0008.76
2022-05-24 13:33:00,,0825.6,5.01,0.00,27.4,26.2,00.0,36.4,29.2,21.2,-002.2,0012.78,0009.25,0008.81
2022-05-24 13:34:00,,0825.6,5.00,0.00,27.4,26.2,00.0,36.4,29.2,21.2,-002.3,0012.82,0009.33,0008.87
2022-05-24 13:35:00,,0825.6,4.99,0.00,27.4,26.2,00.0,36.4,29.2,21.4,-002.4,0012.85,0009.39,0008.92
2022-05-24 13:36:00,,0825.6,5.01,0.00,27.4,26.2,00.0,36.4,29.2,21.4,-002.5,0012.86,0009.41,0008.94
2022-05-24 13:37:00,,0825.6,4.99,0.00,27.3,26.2,00.0,36.4,29.2,21.4,-002.3,0012.59,0009.42,0008.96
2022-05-24 13:38:00,,0825.6,5.00,0.00,27.3,26.2,00.0,36.4,29.2,21.4,-002.1,0012.64,0009.41,0008.98
2022-05-24 13:39:00,,0825.6,5.00,0.00,27.3,26.2,00.0,36.4,29.2,21.4,-002.2,0012.47,0009.42,0009.01
2022-05-24 13:40:00,,0825.6,5.00,0.00,27.3,26.2,00.0,36.4,29.2,21.3,-002.4,0012.55,0009.45,0009.03
2022-05-24 13:41:00,,0825.6,5.00,0.00,27.3,26.2,00.0,36.4,29.2,21.3,-002.3,0012.61,0009.45,0009.05
2022-05-24 13:42:00,,0825.6,5.00,0.00,27.3,26.2,00.0,36.4,29.2,21.2,-002.2,0012.78,0009.49,0009.07
2022-05-24 13:43:00,,0825.6,4.99,0.00,27.3,26.2,00.0,36.3,29.2,21.3,-002.3,0012.86,0009.51,0009.10
2022-05-24 13:44:00,,0825.6,5.00,0.00,27.3,26.2,00.0,36.3,29.2,21.3,-002.4,0012.76,0009.47,0009.11
2022-05-24 13:45:00,,0825.6,5.00,0.00,27.3,26.2,00.0,36.3,29.2,21.3,-002.2,0012.71,0009.44,0009.10
2022-05-24 13:46:00,,0825.6,5.00,0.00,27.3,26.2,00.0,36.3,29.2,21.2,-002.0,0012.73,0009.46,0009.12
2022-05-24 13:47:00,,0825.6,4.99,0.00,27.3,26.2,00.0,36.3,29.2,21.2,-001.8,0012.74,0009.47,0009.15
2022-05-24 13:48:00,,0825.6,5.00,0.00,27.3,26.2,00.0,36.3,29.2,21.3,-001.6,0012.85,0009.50,0009.17
2022-05-24 13:49:00,,0825.5,5.00,0.00,27.4,26.2,00.0,36.3,29.2,21.4,-001.6,0012.65,0009.56,0009.20
2022-05-24 13:50:00,,0825.5,5.00,0.00,27.4,26.3,00.0,36.3,29.2,21.3,-001.4,0012.36,0009.63,0009.25
2022-05-24 13:51:00,,0825.5,5.00,0.00,27.4,26.3,00.0,36.3,29.2,21.4,-001.2,0012.50,0009.70,0009.28
2022-05-24 13:52:00,,0825.5,5.00,0.00,27.4,26.3,00.0,36.3,29.2,21.5,-001.2,0012.52,0009.75,0009.32
2022-05-24 13:53:00,,0825.6,5.00,0.00,27.4,26.3,00.0,36.3,29.2,21.5,-001.4,0012.31,0009.75,0009.33
2022-05-24 13:54:00,,0825.5,5.00,0.00,27.4,26.3,00.0,36.3,29.2,21.5,-001.3,0012.22,0009.71,0009.30
2022-05-24 13:55:00,,0825.5,5.00,0.00,27.4,26.3,00.0,36.3,29.2,21.4,-001.3,0012.24,0009.74,0009.30
2022-05-24 13:56:00,,0825.5,4.99,0.00,27.4,26.3,00.0,36.3,29.2,21.4,-001.4,0012.28,0009.75,0009.30
2022-05-24 13:57:00,,0825.5,5.00,0.00,27.4,26.3,00.0,36.3,29.2,21.4,-001.2,0012.33,0009.79,0009.33
2022-05-24 13:58:00,,0825.5,5.02,0.00,27.4,26.3,00.0,36.3,29.2,21.4,-001.5,0012.38,0009.81,0009.34
2022-05-24 13:59:00,,0825.5,4.99,0.00,27.4,26.3,00.0,36.3,29.2,21.4,-001.6,0012.90,0009.83,0009.34
